EW6304 Weather Reports


Display with metric or nautical units.
time (UTC)temp
F
wind
direction
speed
MPH
gust
MPH
rain 1hr
in
rain 24hr
in
rain mn
in
humidity
%
barometer
mb
20260831014344 71 348 0.0 1.0 0.00 0.00 0.00 84 1016.2
20260831014002 72 348 0.0 1.0 0.00 0.00 0.00 82 1016.0
20260831013849 72 348 0.0 2.0 0.00 0.00 0.00 84 1016.1
20260831013845 72 348 0.0 2.0 0.00 0.00 0.00 84 1016.0
20260831012844 72 348 0.0 1.0 0.00 0.00 0.00 83 1016.1
20260831011843 72 348 0.0 2.0 0.00 0.00 0.00 82 1016.0
20260831011344 72 348 0.0 2.0 0.00 0.00 0.00 81 1016.0
20260831010843 72 348 0.0 1.0 0.00 0.00 0.00 81 1016.0
20260831010343 72 348 0.0 2.0 0.00 0.00 0.00 80 1016.1
20260831005843 72 348 0.0 2.0 0.00 0.00 0.00 80 1015.9
20260831005342 72 348 0.0 1.0 0.00 0.00 0.00 79 1016.0
20260831004841 72 348 0.0 1.0 0.00 0.00 0.00 78 1015.9
20260831004349 72 348 0.0 2.0 0.00 0.00 0.00 78 1015.8
20260831004344 72 348 0.0 2.0 0.00 0.00 0.00 79 1015.9
20260831004001 72 348 0.0 1.0 0.00 0.00 0.00 77 1015.8
20260831003342 72 348 0.0 1.0 0.00 0.00 0.00 77 1015.8
20260831002348 72 348 0.0 2.0 0.00 0.00 0.00 76 1015.7
20260831002344 72 348 0.0 1.0 0.00 0.00 0.00 76 1015.8
20260831001341 73 348 0.0 2.0 0.00 0.00 0.00 76 1015.7
20260831000839 73 348 0.0 1.0 0.00 0.00 0.00 76 1015.6
20260831000340 73 348 0.0 2.0 0.00 0.00 0.00 76 1015.7
20260830235846 73 348 0.0 1.0 0.00 0.00 0.00 74 1015.5
20260830235839 73 348 0.0 2.0 0.00 0.00 0.00 75 1015.6
20260830234839 73 348 1.0 1.0 0.00 0.00 0.00 74 1015.5
20260830234338 73 348 0.0 3.0 0.00 0.00 0.00 74 1015.4
20260830233838 73 348 0.0 3.0 0.00 0.00 0.00 74 1015.5
20260830233336 73 348 0.0 1.0 0.00 0.00 0.00 72 1015.6
20260830232837 74 348 0.0 1.0 0.00 0.00 0.00 73 1015.4
20260830232335 74 348 0.0 2.0 0.00 0.00 0.00 72 1015.5
20260830231837 74 348 0.0 2.0 0.00 0.00 0.00 72 1015.5
20260830231337 74 348 0.0 2.0 0.00 0.00 0.00 72 1015.5
20260830230835 74 348 0.0 2.0 0.00 0.00 0.00 72 1015.5
20260830230341 75 346 0.0 3.0 0.00 0.00 0.00 70 1015.6
20260830230336 74 346 0.0 2.0 0.00 0.00 0.00 71 1015.5
20260830225336 75 346 0.0 3.0 0.00 0.00 0.00 69 1015.6
20260830224841 75 44 1.0 3.0 0.00 0.00 0.00 69 1015.7
20260830224835 75 105 0.0 3.0 0.00 0.00 0.00 70 1015.7
20260830223833 76 0 1.0 3.0 0.00 0.00 0.00 70 1015.7
20260830223334 76 20 1.0 3.0 0.00 0.00 0.00 69 1015.7
20260830222836 76 24 1.0 3.0 0.00 0.00 0.00 67 1015.7
20260830222336 76 24 1.0 4.0 0.00 0.00 0.00 69 1015.8
20260830221833 76 19 1.0 4.0 0.00 0.00 0.00 66 1015.8
20260830221333 76 42 1.0 4.0 0.00 0.00 0.00 66 1015.7
20260830220833 76 24 1.0 4.0 0.00 0.00 0.00 67 1015.8
20260830220336 76 68 1.0 4.0 0.00 0.00 0.00 67 1015.8
20260830215834 76 65 1.0 4.0 0.00 0.00 0.00 67 1015.8
20260830215335 77 40 1.0 3.0 0.00 0.00 0.00 66 1015.8
20260830214839 77 61 1.0 2.0 0.00 0.00 0.00 66 1015.9
20260830214833 77 34 1.0 3.0 0.00 0.00 0.00 67 1015.8
20260830214451 77 61 1.0 3.0 0.00 0.00 0.00 67 1016.0
20260830213334 77 61 1.0 3.0 0.00 0.00 0.00 65 1015.9
20260830212835 78 58 1.0 3.0 0.00 0.00 0.00 65 1015.9
20260830212333 78 49 1.0 3.0 0.00 0.00 0.00 62 1015.9
20260830211833 78 49 1.0 3.0 0.00 0.00 0.00 61 1015.8
20260830211338 78 355 0.0 4.0 0.00 0.00 0.00 62 1015.8
20260830211334 78 51 1.0 4.0 0.00 0.00 0.00 65 1015.8
20260830210952 78 70 1.0 2.0 0.00 0.00 0.00 65 1015.8
20260830205835 78 317 0.0 2.0 0.00 0.00 0.00 62 1015.8
20260830205332 79 317 0.0 2.0 0.00 0.00 0.00 63 1015.9
20260830204831 79 317 0.0 2.0 0.00 0.00 0.00 63 1016.0
20260830204332 79 317 1.0 3.0 0.00 0.00 0.00 63 1016.0
20260830203831 79 317 1.0 3.0 0.00 0.00 0.00 59 1016.1
20260830203336 80 329 1.0 3.0 0.00 0.00 0.00 58 1016.1
20260830203331 80 335 1.0 4.0 0.00 0.00 0.00 54 1016.1
20260830202329 80 316 1.0 4.0 0.00 0.00 0.00 56 1016.0
20260830201829 80 312 2.0 6.0 0.00 0.00 0.00 55 1016.0
20260830201330 80 302 1.0 6.0 0.00 0.00 0.00 54 1016.1
20260830200830 81 311 1.0 6.0 0.00 0.00 0.00 54 1016.2
20260830200329 81 308 1.0 3.0 0.00 0.00 0.00 54 1016.2
20260830195831 81 323 1.0 5.0 0.00 0.00 0.00 56 1016.2
20260830195333 82 346 1.0 6.0 0.00 0.00 0.00 54 1016.5
20260830195329 81 325 1.0 5.0 0.00 0.00 0.00 54 1016.2
20260830194330 82 9 2.0 6.0 0.00 0.00 0.00 51 1016.5
20260830193835 83 295 2.0 5.0 0.00 0.00 0.00 53 1016.5
20260830193829 83 280 2.0 5.0 0.00 0.00 0.00 50 1016.6
20260830192829 83 298 3.0 7.0 0.00 0.00 0.00 48 1016.7
20260830192330 84 335 2.0 7.0 0.00 0.00 0.00 46 1016.7
20260830191830 84 53 1.0 5.0 0.00 0.00 0.00 49 1016.8
20260830191328 84 346 2.0 4.0 0.00 0.00 0.00 54 1016.7
20260830190828 84 323 2.0 8.0 0.00 0.00 0.00 50 1016.8
20260830190333 84 302 1.0 4.0 0.00 0.00 0.00 48 1016.8
20260830190327 84 299 2.0 8.0 0.00 0.00 0.00 48 1016.8
20260830185327 84 302 2.0 4.0 0.00 0.00 0.00 44 1016.9
20260830184827 85 298 2.0 6.0 0.00 0.00 0.00 47 1016.9
20260830184445 84 349 2.0 7.0 0.00 0.00 0.00 45 1017.0
20260830184334 84 333 2.0 7.0 0.00 0.00 0.00 47 1016.8
20260830184329 84 321 2.0 6.0 0.00 0.00 0.00 46 1016.8
20260830182825 84 315 3.0 8.0 0.00 0.00 0.00 46 1017.0
20260830182327 84 309 3.0 8.0 0.00 0.00 0.00 46 1017.1
20260830181825 85 346 2.0 9.0 0.00 0.00 0.00 46 1017.2
20260830181328 84 328 2.0 9.0 0.00 0.00 0.00 48 1017.2
20260830180825 84 306 2.0 9.0 0.00 0.00 0.00 50 1017.3
20260830180325 84 317 3.0 7.0 0.00 0.00 0.00 48 1017.4
20260830175825 84 303 3.0 8.0 0.00 0.00 0.00 48 1017.5
20260830175331 84 344 2.0 7.0 0.00 0.00 0.00 49 1017.4
20260830175326 84 327 2.0 8.0 0.00 0.00 0.00 46 1017.5
20260830174324 84 334 3.0 8.0 0.00 0.00 0.00 49 1017.4
20260830173830 84 296 3.0 8.0 0.00 0.00 0.00 47 1017.5
20260830173824 84 266 3.0 8.0 0.00 0.00 0.00 48 1017.4
20260830172824 84 287 3.0 8.0 0.00 0.00 0.00 49 1017.6
20260830172324 85 275 3.0 10.0 0.00 0.00 0.00 47 1017.6
20260830171824 84 11 3.0 16.0 0.00 0.00 0.00 47 1017.6
20260830171329 84 315 2.0 9.0 0.00 0.00 0.00 47 1017.6
20260830171323 84 306 3.0 16.0 0.00 0.00 0.00 48 1017.6
20260830170941 85 347 2.0 8.0 0.00 0.00 0.00 49 1017.7
20260830165825 85 273 2.0 8.0 0.00 0.00 0.00 52 1017.7
20260830165323 84 302 2.0 5.0 0.00 0.00 0.00 53 1017.7
20260830164823 83 316 2.0 5.0 0.00 0.00 0.00 53 1017.7
20260830164323 83 280 2.0 6.0 0.00 0.00 0.00 53 1017.7
20260830163821 83 336 2.0 7.0 0.00 0.00 0.00 53 1017.8
20260830163327 83 333 2.0 8.0 0.00 0.00 0.00 51 1018.0
20260830163322 83 321 3.0 8.0 0.00 0.00 0.00 50 1017.9
20260830162320 84 355 2.0 7.0 0.00 0.00 0.00 52 1018.0
20260830161817 84 304 2.0 5.0 0.00 0.00 0.00 53 1017.9
20260830161316 83 327 2.0 5.0 0.00 0.00 0.00 53 1018.0
20260830160816 83 16 2.0 6.0 0.00 0.00 0.00 53 1018.1
20260830160318 83 306 2.0 6.0 0.00 0.00 0.00 55 1018.2
20260830155816 82 302 2.0 9.0 0.00 0.00 0.00 53 1018.1
20260830155316 82 47 3.0 9.0 0.00 0.00 0.00 53 1018.1
20260830154817 82 264 3.0 7.0 0.00 0.00 0.00 54 1018.3
20260830154314 82 322 2.0 5.0 0.00 0.00 0.00 52 1018.3
20260830153816 82 315 2.0 5.0 0.00 0.00 0.00 55 1018.3
20260830153315 81 320 2.0 4.0 0.00 0.00 0.00 58 1018.5
20260830152816 80 313 2.0 5.0 0.00 0.00 0.00 62 1018.6
20260830152315 79 47 2.0 5.0 0.00 0.00 0.00 63 1018.6
20260830151814 79 341 1.0 4.0 0.00 0.00 0.00 62 1018.7
20260830151315 79 331 1.0 4.0 0.00 0.00 0.00 65 1018.7
20260830150816 79 56 2.0 11.0 0.00 0.00 0.00 63 1018.7
20260830150315 79 19 2.0 11.0 0.00 0.00 0.00 62 1018.8
20260830145817 79 284 1.0 7.0 0.00 0.00 0.00 61 1018.9
20260830145316 78 316 1.0 5.0 0.00 0.00 0.00 64 1019.1
20260830144816 78 355 1.0 5.0 0.00 0.00 0.00 64 1019.0
20260830144314 78 36 1.0 4.0 0.00 0.00 0.00 64 1019.2
20260830143935 76 17 1.0 4.0 0.00 0.00 0.00 66 1019.1
20260830143820 77 284 1.0 6.0 0.00 0.00 0.00 67 1019.2
20260830143815 77 40 1.0 6.0 0.00 0.00 0.00 65 1019.2
20260830142316 76 325 1.0 3.0 0.00 0.00 0.00 67 1019.2
20260830141814 76 325 1.0 5.0 0.00 0.00 0.00 66 1019.3
20260830141315 76 319 2.0 5.0 0.00 0.00 0.00 66 1019.4
20260830140814 75 325 2.0 5.0 0.00 0.00 0.00 67 1019.4
20260830140314 74 324 2.0 5.0 0.00 0.00 0.00 67 1019.4
20260830135815 74 299 1.0 4.0 0.00 0.00 0.00 69 1019.5
20260830135312 73 344 1.0 7.0 0.00 0.00 0.00 71 1019.5
20260830134815 73 315 1.0 7.0 0.00 0.00 0.00 73 1019.5
20260830134312 72 24 0.0 2.0 0.00 0.00 0.00 75 1019.6
20260830133818 71 53 1.0 3.0 0.00 0.00 0.00 75 1019.8
20260830133814 71 24 1.0 3.0 0.00 0.00 0.00 75 1019.7
20260830132812 70 335 1.0 3.0 0.00 0.00 0.00 76 1019.8
20260830132320 69 324 1.0 4.0 0.00 0.00 0.00 80 1019.9
20260830132315 70 325 1.0 2.0 0.00 0.00 0.00 78 1019.9
20260830131813 70 325 1.0 4.0 0.00 0.00 0.00 79 1019.9
20260830130818 68 326 1.0 3.0 0.00 0.00 0.00 81 1019.9
20260830130814 69 326 1.0 2.0 0.00 0.00 0.00 81 1019.9
20260830130429 68 313 1.0 3.0 0.00 0.00 0.00 82 1020.0
20260830125311 67 296 1.0 3.0 0.00 0.00 0.00 82 1020.1
20260830124811 67 301 1.0 3.0 0.00 0.00 0.00 84 1020.1
20260830124312 66 324 1.0 3.0 0.00 0.00 0.00 85 1020.1
20260830123810 65 315 1.0 3.0 0.00 0.00 0.00 87 1020.1
20260830123311 65 320 1.0 2.0 0.00 0.00 0.00 89 1020.2
20260830122816 62 299 1.0 3.0 0.00 0.00 0.00 93 1020.4
20260830122810 64 322 1.0 5.0 0.00 0.00 0.00 90 1020.3
20260830122310 63 321 1.0 5.0 0.00 0.00 0.00 91 1020.3
20260830121310 62 299 1.0 4.0 0.00 0.00 0.00 94 1020.4
20260830120811 61 324 1.0 4.0 0.00 0.00 0.00 94 1020.4
20260830120311 61 340 0.0 3.0 0.00 0.00 0.00 95 1020.3
20260830115810 60 27 0.0 2.0 0.00 0.00 0.00 95 1020.3
20260830115312 60 27 0.0 2.0 0.00 0.00 0.00 95 1020.4
20260830114810 60 31 0.0 1.0 0.00 0.00 0.00 95 1020.4
20260830114309 60 31 0.0 1.0 0.00 0.00 0.00 95 1020.4
20260830113813 59 31 0.0 1.0 0.00 0.00 0.00 95 1020.3
20260830113809 59 31 0.0 1.0 0.00 0.00 0.00 95 1020.4
20260830112809 59 31 0.0 1.0 0.00 0.00 0.00 95 1020.3
20260830112315 59 31 0.0 1.0 0.00 0.00 0.00 95 1020.4
20260830112309 59 31 0.0 1.0 0.00 0.00 0.00 95 1020.4
20260830111309 59 31 0.0 1.0 0.00 0.00 0.00 95 1020.3
20260830110808 58 31 0.0 1.0 0.00 0.00 0.00 95 1020.3
20260830110310 58 31 0.0 1.0 0.00 0.00 0.00 95 1020.3
20260830105812 57 31 0.0 1.0 0.00 0.00 0.00 95 1020.2
20260830105807 57 31 0.0 1.0 0.00 0.00 0.00 95 1020.2
20260830104807 57 31 0.0 1.0 0.00 0.00 0.00 95 1020.3
20260830104306 57 31 0.0 1.0 0.00 0.00 0.00 95 1020.3
20260830103807 57 31 0.0 1.0 0.00 0.00 0.00 95 1020.4
20260830103307 57 31 0.0 0.0 0.00 0.00 0.00 95 1020.5
20260830102812 57 31 0.0 1.0 0.00 0.00 0.00 95 1020.6
20260830102807 57 31 0.0 0.0 0.00 0.00 0.00 95 1020.6
20260830101807 57 31 0.0 1.0 0.00 0.00 0.00 94 1020.5
20260830101311 57 31 0.0 0.0 0.00 0.00 0.00 94 1020.4
20260830101306 57 31 0.0 0.0 0.00 0.00 0.00 94 1020.6
20260830100305 57 31 0.0 0.0 0.00 0.00 0.00 94 1020.3
20260830095804 57 31 0.0 0.0 0.00 0.00 0.00 94 1020.4
20260830095306 57 31 0.0 0.0 0.00 0.00 0.00 94 1020.4
20260830094804 57 31 0.0 0.0 0.00 0.00 0.00 94 1020.3
20260830094304 57 31 0.0 0.0 0.00 0.00 0.00 94 1020.2
20260830093806 57 31 0.0 0.0 0.00 0.00 0.00 94 1020.3
20260830093304 58 31 0.0 0.0 0.00 0.00 0.00 94 1020.3
20260830092805 58 31 0.0 0.0 0.00 0.00 0.00 94 1020.3
20260830092305 58 31 0.0 0.0 0.00 0.00 0.00 94 1020.3
20260830091805 58 31 0.0 0.0 0.00 0.00 0.00 94 1020.3
20260830091302 58 31 0.0 0.0 0.00 0.00 0.00 94 1020.4
20260830090803 58 31 0.0 0.0 0.00 0.00 0.00 94 1020.5
20260830090303 58 31 0.0 0.0 0.00 0.00 0.00 95 1020.5
20260830085802 58 31 0.0 0.0 0.00 0.00 0.00 94 1020.6
20260830085306 58 31 0.0 0.0 0.00 0.00 0.00 94 1020.7
20260830084802 58 31 0.0 1.0 0.00 0.00 0.00 94 1020.7
20260830084259 58 31 0.0 1.0 0.00 0.00 0.00 94 1020.9
20260830083801 58 31 0.0 1.0 0.00 0.00 0.00 94 1021.0
20260830083259 58 31 0.0 1.0 0.00 0.00 0.00 94 1021.1
20260830082758 58 31 0.0 0.0 0.00 0.00 0.00 94 1021.2
20260830082259 58 31 0.0 0.0 0.00 0.00 0.00 94 1021.2
20260830081759 58 31 0.0 0.0 0.00 0.00 0.00 94 1021.1
20260830081300 57 31 0.0 0.0 0.00 0.00 0.00 94 1021.0
20260830080758 57 31 0.0 1.0 0.00 0.00 0.00 94 1021.0
20260830080258 57 31 0.0 1.0 0.00 0.00 0.00 94 1021.0
20260830075758 57 31 0.0 1.0 0.00 0.00 0.00 94 1021.0
20260830075256 57 31 0.0 1.0 0.00 0.00 0.00 94 1020.9
20260830074802 58 31 0.0 0.0 0.00 0.00 0.00 94 1020.9
20260830074758 57 31 0.0 1.0 0.00 0.00 0.00 94 1020.9
20260830074255 57 31 0.0 1.0 0.00 0.00 0.00 94 1020.9
20260830073301 58 31 0.0 1.0 0.00 0.00 0.00 94 1020.7
20260830073256 58 31 0.0 1.0 0.00 0.00 0.00 94 1020.7
20260830072255 58 31 0.0 0.0 0.00 0.00 0.00 94 1020.7
20260830071755 58 31 0.0 0.0 0.00 0.00 0.00 94 1020.6
20260830071257 58 31 0.0 0.0 0.00 0.00 0.00 94 1020.7
20260830070757 58 31 0.0 0.0 0.00 0.00 0.00 94 1020.6
20260830070257 58 31 0.0 1.0 0.00 0.00 0.00 94 1020.6
20260830065758 58 31 0.0 1.0 0.00 0.00 0.00 94 1020.7
20260830065257 58 31 0.0 1.0 0.00 0.00 0.00 94 1020.6
20260830064759 58 31 0.0 1.0 0.00 0.00 0.00 94 1020.7
20260830064300 58 31 0.0 0.0 0.00 0.00 0.00 94 1020.7
20260830064256 58 31 0.0 1.0 0.00 0.00 0.00 94 1020.7
20260830063255 58 31 0.0 0.0 0.00 0.00 0.00 94 1020.7
20260830062801 58 31 0.0 1.0 0.00 0.00 0.00 93 1020.7
20260830062755 58 31 0.0 1.0 0.00 0.00 0.00 93 1020.6
20260830061754 58 31 0.0 1.0 0.00 0.00 0.00 93 1020.8
20260830061253 58 31 0.0 1.0 0.00 0.00 0.00 93 1020.8
20260830060754 58 31 0.0 0.0 0.00 0.00 0.00 94 1020.8
20260830060750 58 31 0.0 0.0 0.00 0.00 0.00 94 1020.9
20260830060410 59 31 0.0 1.0 0.00 0.00 0.00 93 1020.8
20260830055755 59 31 0.0 1.0 0.00 0.00 0.00 93 1020.7
20260830055750 59 31 0.0 1.0 0.00 0.00 0.00 93 1020.8
20260830054255 59 31 0.0 1.0 0.00 0.00 0.00 93 1020.8
20260830054250 59 31 0.0 1.0 0.00 0.00 0.00 93 1020.8
20260830053249 59 31 0.0 1.0 0.00 0.00 0.00 93 1020.7
20260830052757 59 31 0.0 0.0 0.00 0.00 0.00 93 1020.8
20260830052750 59 31 0.0 0.0 0.00 0.00 0.00 93 1020.7
20260830052404 59 31 0.0 1.0 0.00 0.00 0.00 93 1020.7
20260830051254 59 31 0.0 1.0 0.00 0.00 0.00 93 1020.8
20260830051250 59 31 0.0 1.0 0.00 0.00 0.00 93 1020.9
20260830050250 59 31 0.0 1.0 0.00 0.00 0.00 93 1020.9
20260830045749 60 31 0.0 1.0 0.00 0.00 0.00 93 1020.8
20260830045252 60 31 0.0 0.0 0.00 0.00 0.00 93 1020.7
20260830045247 60 31 0.0 0.0 0.00 0.00 0.00 93 1020.8
20260830044249 60 31 0.0 0.0 0.00 0.00 0.00 93 1020.8
20260830043749 60 31 0.0 0.0 0.00 0.00 0.00 93 1020.7
20260830043247 60 31 0.0 1.0 0.00 0.00 0.00 93 1020.8
20260830042747 60 31 0.0 1.0 0.00 0.00 0.00 93 1020.9
20260830042248 60 31 0.0 1.0 0.00 0.00 0.00 93 1020.8
20260830041746 60 31 0.0 1.0 0.00 0.00 0.00 93 1020.8
20260830041246 60 31 0.0 1.0 0.00 0.00 0.00 92 1020.8
20260830040747 60 31 0.0 1.0 0.00 0.00 0.00 92 1020.8
20260830040250 60 31 0.0 1.0 0.00 0.00 0.00 92 1020.8
20260830040245 60 31 0.0 1.0 0.00 0.00 0.00 92 1020.9
20260830035246 60 31 0.0 1.0 0.00 0.00 0.00 92 1020.6
20260830034753 60 31 0.0 1.0 0.00 0.00 0.00 92 1020.7
20260830034746 60 31 0.0 1.0 0.00 0.00 0.00 92 1020.6
20260830034247 60 31 0.0 1.0 0.00 0.00 0.00 92 1020.7
20260830033904 60 31 0.0 1.0 0.00 0.00 0.00 92 1020.7
20260830032745 60 31 0.0 1.0 0.00 0.00 0.00 92 1020.7
20260830032244 60 31 0.0 1.0 0.00 0.00 0.00 92 1020.8
20260830031744 60 31 0.0 1.0 0.00 0.00 0.00 91 1020.8
20260830031244 61 31 0.0 1.0 0.00 0.00 0.00 91 1020.8
20260830030743 61 31 0.0 1.0 0.00 0.00 0.00 91 1020.8
20260830030243 61 31 0.0 1.0 0.00 0.00 0.00 91 1020.8
20260830025742 61 31 0.0 0.0 0.00 0.00 0.00 91 1020.7
20260830025243 61 31 0.0 1.0 0.00 0.00 0.00 91 1020.7
20260830024743 61 31 0.0 1.0 0.00 0.00 0.00 90 1020.7
20260830024246 61 31 0.0 0.0 0.00 0.00 0.00 90 1020.8
20260830024241 61 31 0.0 0.0 0.00 0.00 0.00 90 1020.8
20260830023247 61 31 0.0 0.0 0.00 0.00 0.00 90 1020.8
20260830023242 61 31 0.0 0.0 0.00 0.00 0.00 90 1020.7
20260830022242 61 31 0.0 0.0 0.00 0.00 0.00 90 1020.9
20260830021741 62 31 0.0 0.0 0.00 0.00 0.00 90 1020.8
20260830021239 62 31 0.0 0.0 0.00 0.00 0.00 89 1020.8
20260830020740 62 31 0.0 0.0 0.00 0.00 0.00 89 1020.8
20260830020238 62 31 0.0 0.0 0.00 0.00 0.00 89 1020.8
20260830015739 62 31 0.0 0.0 0.00 0.00 0.00 89 1020.7
20260830015236 62 31 0.0 0.0 0.00 0.00 0.00 89 1020.7
20260830014738 62 31 0.0 0.0 0.00 0.00 0.00 89 1020.6